Hourly Data Report for February 09, 2005

TORONTO CITY
ONTARIO

43°40'00.000" N
79°24'00.000" W
112.50 m
6158355
71508
XTO

Download Data

Hourly Data (February 2005)
Hourly Data Report for February 9, 2005
TIME
LST
Temp Definition
°C
Dew Point Definition
°C
Rel Hum Definition
%
Precip. Amount Definition
mm

Wind Dir Definition
10's deg

Wind Spd Definition
km/h
Visibility Definition
km
Stn Press Definition
kPa
Hmdx Definition


Wind Chill Definition


Weather Definition


00:00 -1.8 -4.5 82   LegendMM LegendMM   100.51     LegendNANA
01:00 -2.0 -4.8 81   LegendMM LegendMM   100.49     LegendNANA
02:00 -2.0 -4.9 81   LegendMM LegendMM   100.44     LegendNANA
03:00 -2.2 -5.2 80   LegendMM LegendMM   100.41     LegendNANA
04:00 -2.9 -5.6 82   LegendMM LegendMM   100.39     LegendNANA
05:00 -3.3 -5.7 83   LegendMM LegendMM   100.36     LegendNANA
06:00 -3.7 -5.8 85   LegendMM LegendMM   100.35     LegendNANA
07:00 -4.0 -6.0 86   LegendMM LegendMM   100.38     LegendNANA
08:00 -3.8 -6.4 82   LegendMM LegendMM   100.35     LegendNANA
09:00 -3.7 -6.6 80   LegendMM LegendMM   100.30     LegendNANA
10:00 -3.3 -6.9 76   LegendMM LegendMM   100.26     LegendNANA
11:00 -3.1 -6.7 76   LegendMM LegendMM   100.24     LegendNANA
12:00 -3.8 -5.1 91   LegendMM LegendMM   100.18     LegendNANA
13:00 -3.7 -4.6 93   LegendMM LegendMM   100.01     LegendNANA
14:00 -3.3 -4.2 93   LegendMM LegendMM   99.87     LegendNANA
15:00 -2.4 -3.2 94   LegendMM LegendMM   99.79     LegendNANA
16:00 -2.1 -3.0 94   LegendMM LegendMM   99.75     LegendNANA
17:00 -1.8 -2.7 94   LegendMM LegendMM   99.73     LegendNANA
18:00 -1.9 -2.7 94   LegendMM LegendMM   99.75     LegendNANA
19:00 -2.2 -3.4 91   LegendMM LegendMM   99.76     LegendNANA
20:00 -2.5 -3.7 91   LegendMM LegendMM   99.77     LegendNANA
21:00 -3.2 -4.3 92   LegendMM LegendMM   99.75     LegendNANA
22:00 -3.2 -4.6 90   LegendMM LegendMM   99.73     LegendNANA
23:00 -3.3 -5.3 86   LegendMM LegendMM   99.67     LegendNANA

Notes on Data Quality.

Legend

  • E = Estimated
  • M = Missing
  • NA = Not Available*
  • [empty] = Indicates an unobserved value
Date modified: